Skip Navigation Links weather.gov 
NOAA logo-Select to go to the NOAA homepage NDBC Title GraphicClick to go to NDBC home page   Select to go to the NWS homepage
Home About Us Contact Us
 
 
    
    Station List

 Data Access
    Mobile Access
    Interactive Maps
         All Stations
         DART®
    Obs Search
    Ship Obs Report
    BuoyCAMs
    TAO
    DODS
    OceanSITES
    HF Radar
    OSMC
    Dial-A-Buoy
    RSS Feeds Image indicating link to RSS feed access page
    Web Widget
    Web Data Guide
    Maintenance Schedule
    Station Status Report

 Program Info
    TAO
    DART®
    IOOS®

 Publications
    NDBC PEA
    NDBC FONSI
    NDBC DQC Handbook

 Visitor Information
 
USA.gov is the U.S. government's official web portal to all federal, state and local government web resources and services.

Station RIXA2 - Rocky Island, AK Image indicating link to RSS feed of recent meteorological observations for station RIXA2

Owned and maintained by Marine Exchange of Alaska
C-MAN Station
58.177 N 135.052 W (58°10'37" N 135°3'6" W)

Site elevation: 13.7 m above mean sea level
Air temp height: 2.7 m above site elevation
Anemometer height: 2.7 m above site elevation
Barometer elevation: 16.5 m above mean sea level

Search And Rescue (SAR) Data

Meteorological Observations from Nearby Stations and Ships Image indicating link to RSS feed of recent meteorological observations near station RIXA2

Large icon indicates selected station.
yellow diamond Stations with recent data
red diamond Stations with no data in last 8 hours
     (24 hours for tsunami stations)


Conditions at RIXA2 as of
(8:52 pm AKST on 11/30/2021)
0552 GMT on 12/01/2021:
     

Click on the graph icon in the table below to see a time series plot of the last five days of that observation.

5-day plot - Wind Direction Wind Direction (WDIR): SSW ( 200 deg true )
5-day plot - Wind Speed Wind Speed (WSPD): 22 kts
5-day plot - Wind Gust Wind Gust (GST): 31 kts
5-day plot - Atmospheric Pressure Atmospheric Pressure (PRES): 29.30 in
5-day plot - Air Temperature Air Temperature (ATMP): 40.1 °F
5-day plot - Dew Point Dew Point (DEWP): 35.6 °F
5-day plot - Wind Chill Wind Chill (CHILL): 29.5 °F
5-day plot - Wind Speed at 10 Meters Wind Speed at 10 meters (WSPD10M): 25 kts
5-day plot - Wind Speed at 10 Meters Wind Speed at 20 meters (WSPD20M): 27 kts
5-day plot - Wind Speed, Wind Gust and Atmospheric Pressure Combined plot of Wind Speed, Gust, and Air Pressure
Previous observations
5-day plot - Wind Direction 5-day plot - Wind Speed 5-day plot - Wind Gust 5-day plot - Wave Height 5-day plot - Dominant Wave Period 5-day plot - Average Period 5-day plot - Mean Wave Direction 5-day plot - Atmospheric Pressure 5-day plot - Pressure Tendency 5-day plot - Air Temperature 5-day plot - Water Temperature 5-day plot - Dew Point 5-day plot - Salinity 5-day plot - Visibility 5-day plot - Tide (above MLLW)
MM DD TIME
(AKST)
WDIR WSPD
kts
GST
kts
WVHT
ft
DPD
sec
APD
sec
MWD PRES
in
PTDY
in
ATMP
°F
WTMP
°F
DEWP
°F
SAL
psu
VIS
nmi
TIDE
ft
1130 8:42 pmSSW 21 28----29.29- 39.7- 35.2---
1130 8:32 pmSSW 22 30----29.28- 39.9- 35.6---
1130 8:22 pm S 25 33----29.27- 39.9- 35.8---
1130 8:13 pm S 25 35----29.26- 39.7- 35.6---
1130 8:02 pm S 26 32----29.25- 39.6- 35.4---
1130 7:52 pm S 26 32----29.24- 39.0- 35.2---
1130 7:42 pm S 27 32----29.23- 38.7- 35.1---
1130 7:32 pm S 28 34----29.23- 38.5- 34.9---
1130 7:23 pm S 28 34----29.22- 38.1- 34.5---
1130 7:12 pm S 26 33----29.21- 37.8- 34.2---
1130 7:02 pm S 26 32----29.21- 37.8- 34.2---
1130 6:52 pm S 25 32----29.21- 37.8- 34.2---
1130 6:42 pm S 24 33----29.20- 37.8- 34.2---
1130 6:32 pm S 23 31----29.19- 37.4- 34.0---
1130 6:22 pm S 21 28----29.19- 36.9- 33.6---
1130 6:12 pm S 20 29----29.18- 36.3- 33.1---
1130 6:02 pm S 19 25----29.17- 36.1- 33.3---
1130 5:52 pm S 19 26----29.16- 36.0- 33.1---
1130 5:45 pm S 16 22----29.16- 35.6- 32.7---
1130 5:36 pm S 15 20----29.15- 35.1- 32.4---
1130 5:26 pm S 14 19----29.15- 34.5- 31.8---
1130 5:16 pm S 11 15----29.14- 34.7- 32.0---
1130 5:06 pm S 10 15----29.13- 34.5- 31.8---
1130 4:56 pm S 9 14----29.13- 34.3- 31.6---
1130 4:47 pm S 9 12----29.12- 34.2- 31.5---
1130 4:36 pm S 8 11----29.10- 34.2- 31.5---
1130 4:26 pm S 7 10----29.10- 34.3- 31.6---
1130 4:16 pm S 6 8----29.08- 34.5- 31.8---
1130 4:06 pm SW 5 8----29.08- 34.3- 32.0---
1130 3:56 pmWSW 5 7----29.07- 34.0- 31.6---
1130 3:46 pmWSW 6 8----29.05- 33.8- 31.5---
1130 3:36 pm W 7 10----29.04- 33.6- 31.3---
1130 3:26 pm W 9 13----29.03- 33.6- 31.3---
1130 3:16 pmWNW 11 14----29.02- 33.8- 31.5---
1130 2:56 pm W 8 11----28.99- 33.4- 31.1---
1130 2:16 pmWSW 6 8----28.95- 32.9- 30.6---
1130 2:06 pmWSW 5 7----28.94- 32.7- 30.4---
1130 1:56 pmWSW 4 5----28.94- 32.7- 30.4---
1130 1:46 pm W 3 5----28.93- 32.9- 30.6---
1130 1:36 pm W 4 7----28.92- 32.9- 30.6---
1130 1:26 pmWNW 4 7----28.92- 33.3- 30.6---
1130 1:16 pmWNW 5 10----28.91- 33.4- 30.7---
1130 1:06 pmNNW 6 15----28.90- 34.3- 31.6---
113012:56 pm NE 12 19----28.90- 35.4- 32.7---
113012:46 pmENE 18 22----28.89- 35.2- 32.5---
113012:36 pmENE 18 22----28.89- 35.2- 32.5---
113012:17 pmENE 22 26----28.89- 34.7- 32.2---
113012:06 pmENE 22 27----28.89- 34.7- 32.2---
113011:56 amENE 23 27----28.89- 34.5- 32.0---
113011:46 amENE 24 31----28.89- 34.7- 32.4---
113011:15 am E 29 35----28.90- 34.3- 31.8---
113011:06 amENE 29 36----28.90- 34.3- 31.6---
113010:56 amENE 30 37----28.90- 34.5- 31.8---
113010:46 amENE 30 37----28.91- 34.3- 31.6---
113010:36 amENE 29 37----28.92- 34.3- 31.6---
113010:26 amENE 29 35----28.93- 34.3- 31.6---
113010:17 amENE 29 35----28.93- 34.5- 31.8---
113010:06 amENE 30 37----28.94- 34.7- 32.0---
1130 9:56 amENE 29 35----28.95- 35.1- 32.2---
1130 9:46 amENE 29 35----28.97- 34.9- 32.0---
1130 9:36 amENE 30 35----28.97- 34.9- 32.0---
1130 9:26 amENE 28 35----28.98- 35.1- 32.2---
1130 9:17 amENE 27 33----29.00- 35.2- 32.2---
1130 9:06 amENE 29 37----29.00- 35.2- 32.2---
1130 8:56 amENE 30 35----29.02- 35.1- 32.0---
1130 8:46 amENE 29 35----29.03- 35.2- 32.2---
1130 8:36 amENE 29 36----29.04- 35.4- 32.2---
1130 8:26 amENE 28 35----29.05- 35.6- 32.4---
1130 8:16 amENE 28 33----29.06- 35.8- 32.5---
1130 8:06 amENE 28 33----29.08- 36.0- 32.7---
1130 7:56 amENE 25 31----29.09- 36.1- 32.9---
1130 7:46 amENE 25 30----29.10- 36.1- 32.9---
1130 7:36 amENE 25 30----29.11- 36.3- 32.9---
1130 7:26 amENE 25 31----29.12- 36.3- 32.9---
1130 7:16 amENE 27 33----29.13- 36.1- 32.9---
1130 7:06 amENE 27 33----29.13- 36.0- 32.7---
1130 6:56 amENE 26 32----29.14- 36.0- 32.5---
1130 6:46 amENE 26 32----29.15- 36.3- 32.9---
1130 6:36 amENE 27 32----29.16- 36.5- 33.1---
1130 6:26 amENE 25 30----29.16- 37.4- 33.3---
1130 6:16 amENE 24 28----29.18- 37.4- 33.6---
1130 6:06 amENE 24 30----29.19- 36.5- 33.1---
1130 5:56 amENE 21 27----29.21- 36.7- 33.3---
1130 5:46 amENE 21 27----29.22- 36.7- 33.1---
1130 5:36 amENE 20 29----29.23- 36.9- 33.3---
1130 5:26 amENE 20 28----29.24- 36.7- 33.3---
1130 5:16 amENE 19 28----29.25- 36.3- 32.9---
1130 5:05 amENE 21 25----29.26- 36.3- 33.1---
1130 4:56 amENE 20 29----29.26- 36.1- 32.9---
1130 4:46 amENE 19 26----29.27- 36.5- 33.1---
1130 4:36 amENE 18 26----29.28- 36.5- 33.1---
1130 4:26 amENE 21 26----29.28- 36.3- 32.9---
1130 4:16 amENE 21 26----29.28- 36.5- 33.1---
1130 4:06 amENE 20 27----29.28- 36.9- 33.1---
1130 3:56 amENE 21 26----29.29- 36.9- 32.9---
1130 3:46 amENE 20 25----29.30- 36.9- 32.9---
1130 3:36 amENE 20 24----29.30- 36.7- 32.5---
1130 3:26 amENE 19 22----29.31- 36.7- 32.7---
1130 3:16 amENE 20 25----29.31- 36.7- 32.5---
1130 3:06 amENE 17 23----29.33- 36.5- 32.4---
1130 2:56 amENE 19 24----29.33- 36.5- 32.2---
1130 2:46 amENE 19 23----29.34- 36.3- 32.2---
1130 2:36 amENE 18 22----29.35- 36.3- 32.2---
1130 2:26 am NE 18 23----29.35- 36.1- 32.0---
1130 2:16 am NE 16 20----29.35- 35.6- 31.6---
1130 2:06 am NE 17 23----29.35- 35.6- 31.8---
1130 1:56 amENE 17 23----29.36- 35.6- 31.8---
1130 1:46 amENE 15 19----29.36- 35.8- 31.8---
1130 1:36 amENE 15 20----29.37- 36.1- 32.2---
1130 1:26 amENE 15 21----29.36- 36.3- 32.4---
1130 1:16 amENE 18 24----29.37- 36.1- 32.4---
1130 1:06 amENE 16 22----29.37- 35.6- 32.2---
113012:56 amENE 16 23----29.38- 35.2- 31.8---
113012:46 amENE 18 21----29.38- 34.9- 31.6---
113012:26 amENE 17 21----29.39- 35.1- 31.8---
113012:16 amENE 16 21----29.39- 34.9- 31.6---
113012:06 amENE 15 19----29.40- 34.9- 31.5---
112911:56 pmENE 14 18----29.40- 35.1- 31.6---
112911:46 pmENE 14 17----29.39- 34.7- 31.3---
112911:36 pmENE 14 22----29.39- 34.5- 31.1---
112911:26 pmENE 15 20----29.39- 34.5- 31.1---
112911:16 pmENE 13 18----29.39- 34.2- 30.9---
112910:56 pmENE 16 21----29.38- 34.3- 30.9---
112910:46 pmENE 18 24----29.38- 34.3- 31.1---
112910:36 pmENE 18 24----29.38- 34.2- 30.9---
112910:26 pmENE 19 26----29.38- 34.2- 30.7---
112910:16 pmENE 17 26----29.38- 34.0- 30.7---
112910:06 pmENE 17 24----29.38- 33.8- 30.6---
1129 9:56 pm E 18 22----29.38- 33.8- 30.6---
1129 9:46 pmENE 18 24----29.37- 33.8- 30.6---
1129 9:26 pm E 14 21----29.37- 34.5- 30.6---
1129 9:16 pm E 13 26----29.36- 34.5- 30.6---
1129 9:06 pmENE 17 24----29.36- 34.5- 30.7---
1129 8:56 pmENE 16 25----29.36- 34.3- 30.6---

Description of Measurements

Links which are specific to this station are listed below:

Real Time Data in tabular form for the last forty-five days.

Historical Data & Climatic Summaries for quality controlled data for the current month, previous months, and previous years.